Hourly Weather Roundup
Issued by NWS Central Illinois

Home | Current Version | Previous Version | Text Only | Print | Product List | Glossary On
Versions: 1 2 3 4 5 6 7 8 9 10 11 12 13 14 15 16 17 18 19 20 21 22 23 24 25 26 27 28 29 30 31 32 33 34 35 36 37 38 39 40 41 42 43 44 45 46 47 48 49 50
000
NZUS43 KILX 201310
HWRILX

AREA WEATHER ROUNDUP
NATIONAL WEATHER SERVICE, LINCOLN IL
800 AM CDT MON OCT 20 2014


CITY           SKY/WX    TMP DP  RH WIND       PRES   REMARKS
BLOOMINGTON    CLEAR     50  47  89 SW10      29.89S
CHAMPAIGN      PTCLDY    51  47  86 SW12      29.90S
DECATUR        CLEAR     53  48  83 SW13      29.92R
FLORA          CLEAR     52  47  84 SW7       29.97S
GALESBURG      CLEAR     47  44  90 W9        29.91S
JACKSONVILLE   CLEAR     53  50  88 SW6       29.93S
LACON          CLEAR     49  44  82 SW3       29.88R
LAWRENCEVILLE  CLOUDY    51  48  89 S7        29.99R
LITCHFIELD     CLEAR     52  47  83 SW7       29.95R
$$


CITY           SKY/WX    TMP DP  RH WIND       PRES   REMARKS
LINCOLN        CLEAR     54  49  82 W6        29.89S
MACOMB         CLEAR     47  46  94 W7        29.95R
MATTOON        MOCLDY    50  46  86 SW10      29.91F
MT CARMEL AP   MOCLDY    54  48  82 SW7       29.99R
OLNEY-NOBLE AP CLOUDY    52  46  82 S5        29.98R
PARIS          PTCLDY    50  47  90 SW8       29.92S
PEORIA         CLEAR     51  45  79 W5        29.90R
PONTIAC        CLEAR     48  46  93 W7        29.86R
RANTOUL        PTCLDY    52  47  82 SW13      29.89R
ROBINSON       CLOUDY    53  49  87 SW5       29.97S
SPRINGFIELD    CLEAR     53  48  83 W9        29.92R
TAYLORVILLE    CLEAR     52  48  87 W7        29.94R
$$

...REGIONAL REPORTS...


CITY           SKY/WX    TMP DP  RH WIND       PRES   REMARKS
CHICAGO O`HARE PTCLDY    47  43  86 W6        29.81R
KANKAKEE       PTCLDY    50  46  88 SW9       29.85R
MOLINE         CLEAR     50  43  77 NW9       29.91R
MOUNT VERNON   CLOUDY    52  46  82 SW6       30.00R
PITTSFIELD     CLEAR     55  50  82 W7        29.96R
QUINCY         CLEAR     52  48  86 NW7       29.95R
ROCKFORD       PTCLDY    47  42  83 NW7       29.86R
$$


CITY           SKY/WX    TMP DP  RH WIND       PRES   REMARKS
BURLINGTON     CLEAR     50  45  83 NW8       29.94R
CEDAR RAPIDS   CLEAR     44  42  93 NW8       29.94R
DES MOINES     CLEAR     47  41  80 NW9       30.02R
KIRKSVILLE     CLEAR     50  47  89 NW6       29.99R
OTTUMWA        CLEAR     47  42  83 NW7       29.98R
ST LOUIS       PTCLDY    56  49  77 W10       29.97S
$$


CITY           SKY/WX    TMP DP  RH WIND       PRES   REMARKS
TERRE HAUTE    MOCLDY    51  46  83 S10       29.94S
EVANSVILLE     MOCLDY    52  47  83 SW8       30.02S
INDIANAPOLIS   PTSUNNY   50  45  83 SW10      29.93F
LAFAYETTE      CLOUDY    51  46  83 SW8       29.88S
MADISON        PTCLDY    50  43  77 NW8       29.85R
MILWAUKEE      PTCLDY    49  43  80 NW7       29.79R
$$




USA.gov is the U.S. government's official web portal to all federal, state and local government web resources and services.